Terminal Aerodrome Forecast
Issued by NWS Topeka, KS

Home | Current Version | Previous Version | Graphics & Text | Print | Product List | Glossary On
Versions: 1 2 3 4 5 6 7 8 9 10 11 12 13 14 15 16 17 18 19 20 21 22 23 24 25 26 27 28 29
000
FTUS43 KTOP 191139
TAFTOP
TAF
KTOP 191139Z 1912/2012 21013G21KT P6SM VCSH BKN015 WS020/22050KT
     FM191400 27012G20KT P6SM OVC010
     FM191700 33011KT P6SM SCT025 BKN035
     FM200200 04009KT P6SM -SHRA OVC020
     FM200600 05008KT 4SM SHRA OVC015 WS020/18030KT
     FM201000 35011KT 5SM SHRA OVC020=

USA.gov is the U.S. government's official web portal to all federal, state and local government web resources and services.